Regional Weather Roundup
Issued by NWS

Home | Current Version | Previous Version | Graphics & Text | Print | Product List | Glossary On
Versions: 1 2 3 4 5 6 7 8 9 10 11 12 13 14 15 16 17 18 19 20 21 22 23 24 25 26 27 28 29 30 31 32 33 34 35 36 37 38 39 40 41 42 43 44 45 46 47 48 49 50
000
ASUS43 KOAX 180802
RWRNE

WEATHER ROUNDUP FOR NEBRASKA
NATIONAL WEATHER SERVICE OMAHA NE
200 AM CST THU DEC 18 2014

NOTES: SATELLITE DATA IS BEING USED TO AUGMENT CLOUD COVER ABOVE
       12000 FEET.
       "FAIR" INDICATES FEW OR NO CLOUDS BELOW 12,000 FEET WITH NO
       SIGNIFICANT WEATHER AND/OR OBSTRUCTIONS TO VISIBILITY.

  * THESE STATIONS DO NOT REPORT WEATHER SUCH AS RAIN...SNOW OR FOG.

NEZ001>004-019>022-054>056-180900-
NEBRASKA PANHANDLE

CITY           SKY/WX    TMP DP  RH WIND       PRES   REMARKS
SCOTTSBLUFF    FOG       14  12  92 N5        30.01F VSB 1/4 WCI   6
ALLIANCE       FOG       19  17  92 SW8       29.99F VSB 1/4 WCI   9
CHADRON        FOG       17  15  92 SW5       30.02S VSB 1/4 WCI  10
SIDNEY         FOG       17  15  92 SW8       29.98F VSB 1   WCI   7
$$

NEZ057>060-069>072-079>082-180900-
SOUTHWEST NEBRASKA

CITY           SKY/WX    TMP DP  RH WIND       PRES   REMARKS
NORTH PLATTE   CLOUDY    23  22  96 S6        30.08F FOG     WCI  16
IMPERIAL       CLOUDY    25  22  88 S8        30.06F FOG     WCI  16
MCCOOK         LGT SNOW  25  23  92 SE3       30.10F FOG
$$

NEZ005>010-023>029-035>040-094-180900-
NORTH CENTRAL NEBRASKA

CITY           SKY/WX    TMP DP  RH WIND       PRES   REMARKS
VALENTINE      CLOUDY    24  21  88 S9        30.07F WCI  14
AINSWORTH      CLOUDY    22  21  96 S3        30.08F
BROKEN BOW     CLOUDY    24  22  91 S7        30.10F FOG     WCI  16
ORD            CLOUDY    23  20  88 SE7       30.14F WCI  15
$$

NEZ041-046>049-061>064-073>077-083>087-180900-
SOUTH CENTRAL NEBRASKA

CITY           SKY/WX    TMP DP  RH WIND       PRES   REMARKS
GRAND ISLAND   LGT SNOW  23  21  92 E5        30.18F FOG     WCI  17
AURORA         LGT SNOW  24  23  96 E5        30.17F WCI  18
HASTINGS       LGT SNOW  24  21  88 E3        30.15F FOG
KEARNEY *      CLOUDY    23  19  86 E3        30.15S
$$

NEZ011>018-030>034-042>045-180900-
NORTHEAST NEBRASKA

CITY           SKY/WX    TMP DP  RH WIND       PRES   REMARKS
NORFOLK        CLOUDY    25  19  78 E6        30.19F WCI  18
BLAIR          CLOUDY    28  21  78 E3        30.22S
COLUMBUS *     CLOUDY    25  16  68 E6        30.22S WCI  18
TEKAMAH        CLOUDY    27  20  75 E6        30.25F WCI  20
$$

NEZ050>053-065>068-078-088>093-180900-
SOUTHEAST NEBRASKA

CITY           SKY/WX    TMP DP  RH WIND       PRES   REMARKS
LINCOLN        CLOUDY    27  19  72 E5        30.23F WCI  22
OMAHA EPPLEY   CLOUDY    28  21  75 E5        30.26S WCI  23
FALLS CITY     LGT SNOW  28  23  81 S5        30.24S WCI  23
$$

NEZ044-045-051>053-067-180900-
OMAHA AREA

CITY           SKY/WX    TMP DP  RH WIND       PRES   REMARKS
OMAHA EPPLEY   CLOUDY    28  21  75 E5        30.26S WCI  23
BLAIR          CLOUDY    28  21  78 E3        30.22S
OFFUTT AFB     CLOUDY    28  21  74 E5        30.23F WCI  23
$$



USA.gov is the U.S. government's official web portal to all federal, state and local government web resources and services.